TimeCST,TemperatureF,Dew PointF,Humidity,Sea Level PressureIn,VisibilityMPH,Wind Direction,Wind SpeedMPH,Gust SpeedMPH,PrecipitationIn,Events,Conditions,WindDirDegrees,DateUTC
12:15 AM,59.0,53.6,82,29.70,10.0,South,13.8,-,N/A,,Unknown,180,2013-12-20 06:15:00
12:35 AM,59.0,53.6,82,29.71,10.0,South,11.5,-,N/A,,Unknown,190,2013-12-20 06:35:00
12:55 AM,57.2,53.6,88,29.71,10.0,South,11.5,-,N/A,,Unknown,180,2013-12-20 06:55:00
1:15 AM,55.4,53.6,94,29.72,10.0,South,8.1,-,N/A,,Unknown,190,2013-12-20 07:15:00
1:35 AM,55.4,51.8,88,29.73,10.0,South,6.9,-,N/A,,Unknown,190,2013-12-20 07:35:00
1:55 AM,53.6,51.8,94,29.73,10.0,South,9.2,-,N/A,,Unknown,190,2013-12-20 07:55:00
2:15 AM,55.4,53.6,94,29.74,10.0,South,11.5,-,N/A,,Unknown,180,2013-12-20 08:15:00
2:35 AM,55.4,53.6,94,29.74,10.0,South,12.7,-,N/A,,Unknown,190,2013-12-20 08:35:00
2:55 AM,55.4,53.6,94,29.74,10.0,South,10.4,-,N/A,,Unknown,190,2013-12-20 08:55:00
3:15 AM,53.6,53.6,100,29.74,10.0,South,9.2,-,N/A,,Unknown,180,2013-12-20 09:15:00
3:35 AM,55.4,53.6,94,29.74,10.0,South,10.4,-,N/A,,Unknown,190,2013-12-20 09:35:00
3:55 AM,55.4,53.6,94,29.75,10.0,South,10.4,-,N/A,,Unknown,190,2013-12-20 09:55:00
4:15 AM,55.4,53.6,94,29.74,10.0,South,10.4,-,N/A,,Unknown,180,2013-12-20 10:15:00
4:35 AM,55.4,53.6,94,29.76,10.0,SSW,4.6,-,N/A,,Unknown,210,2013-12-20 10:35:00
4:55 AM,55.4,53.6,94,29.79,10.0,SW,6.9,-,N/A,,Unknown,230,2013-12-20 10:55:00
5:15 AM,55.4,53.6,94,29.80,10.0,WSW,5.8,-,N/A,,Unknown,240,2013-12-20 11:15:00
5:35 AM,55.4,53.6,94,29.81,10.0,NW,9.2,-,N/A,,Unknown,310,2013-12-20 11:35:00
5:55 AM,42.8,37.4,81,29.84,10.0,NW,20.7,31.1,N/A,,Unknown,320,2013-12-20 11:55:00
6:15 AM,39.2,35.6,87,29.84,10.0,NNW,20.7,26.5,N/A,,Unknown,330,2013-12-20 12:15:00
6:35 AM,37.4,32.0,81,29.84,10.0,NNW,23.0,-,N/A,,Unknown,340,2013-12-20 12:35:00
6:55 AM,37.4,32.0,81,29.86,10.0,NNW,17.3,25.3,N/A,,Unknown,330,2013-12-20 12:55:00
7:15 AM,35.6,32.0,87,29.88,10.0,North,13.8,-,N/A,,Unknown,350,2013-12-20 13:15:00
7:35 AM,35.6,32.0,87,29.88,7.0,NNW,15.0,-,N/A,,Unknown,340,2013-12-20 13:35:00
7:55 AM,33.8,30.2,87,29.89,7.0,North,16.1,-,N/A,,Unknown,350,2013-12-20 13:55:00
8:15 AM,33.8,30.2,87,29.90,5.0,NNW,12.7,-,N/A,,Mist,340,2013-12-20 14:15:00
8:35 AM,32.0,30.2,93,29.92,5.0,NNW,11.5,-,N/A,,Mist,340,2013-12-20 14:35:00
8:55 AM,32.0,30.2,93,29.94,5.0,NNW,13.8,-,N/A,,Mist,340,2013-12-20 14:55:00
9:15 AM,32.0,30.2,93,29.94,7.0,North,11.5,-,N/A,,Unknown,10,2013-12-20 15:15:00
9:35 AM,32.0,30.2,93,29.94,7.0,NNW,10.4,-,N/A,,Unknown,340,2013-12-20 15:35:00
9:55 AM,32.0,30.2,93,29.95,7.0,NNW,12.7,-,N/A,,Unknown,340,2013-12-20 15:55:00
10:15 AM,32.0,28.4,87,29.94,7.0,North,16.1,19.6,N/A,,Unknown,350,2013-12-20 16:15:00
10:35 AM,32.0,28.4,87,29.95,10.0,NNW,15.0,19.6,N/A,,Unknown,340,2013-12-20 16:35:00
10:55 AM,32.0,28.4,87,29.94,10.0,North,15.0,-,N/A,,Unknown,350,2013-12-20 16:55:00
11:15 AM,32.0,26.6,80,29.94,10.0,North,15.0,-,N/A,,Unknown,350,2013-12-20 17:15:00
11:35 AM,32.0,26.6,80,29.94,10.0,North,10.4,-,N/A,,Unknown,350,2013-12-20 17:35:00
11:55 AM,32.0,24.8,75,29.94,10.0,NNW,13.8,-,N/A,,Unknown,340,2013-12-20 17:55:00
12:15 PM,32.0,24.8,75,29.94,10.0,North,10.4,-,N/A,,Unknown,360,2013-12-20 18:15:00
12:35 PM,32.0,24.8,75,29.93,10.0,North,8.1,-,N/A,,Unknown,360,2013-12-20 18:35:00
12:55 PM,32.0,24.8,75,29.92,10.0,NNW,11.5,-,N/A,,Unknown,340,2013-12-20 18:55:00
1:15 PM,32.0,24.8,75,29.92,10.0,NNW,12.7,-,N/A,,Unknown,330,2013-12-20 19:15:00
1:35 PM,32.0,24.8,75,29.91,10.0,NNW,12.7,-,N/A,,Unknown,340,2013-12-20 19:35:00
1:55 PM,32.0,24.8,75,29.89,10.0,North,10.4,-,N/A,,Unknown,350,2013-12-20 19:55:00
2:15 PM,32.0,24.8,75,29.90,10.0,NNW,11.5,-,N/A,,Unknown,340,2013-12-20 20:15:00
2:35 PM,32.0,24.8,75,29.92,10.0,NNW,10.4,-,N/A,,Unknown,340,2013-12-20 20:35:00
2:55 PM,32.0,24.8,75,29.92,10.0,North,9.2,-,N/A,,Unknown,360,2013-12-20 20:55:00
3:15 PM,32.0,24.8,75,29.91,10.0,NNW,9.2,-,N/A,,Light Drizzle,340,2013-12-20 21:15:00
3:35 PM,32.0,24.8,75,29.92,5.0,North,8.1,-,N/A,,Light Drizzle,350,2013-12-20 21:35:00
3:55 PM,30.2,26.6,86,29.90,3.0,North,12.7,-,0.01,Snow,Snow,360,2013-12-20 21:55:00
4:15 PM,30.2,26.6,86,29.91,4.0,NNW,8.1,-,0.02,,Unknown,340,2013-12-20 22:15:00
4:35 PM,30.2,28.4,93,29.91,5.0,North,9.2,-,0.03,,Unknown,360,2013-12-20 22:35:00
4:55 PM,30.2,28.4,93,29.87,4.0,NNE,8.1,-,0.04,,Unknown,20,2013-12-20 22:55:00
5:15 PM,30.2,28.4,93,29.90,5.0,NNE,6.9,-,0.01,,Unknown,30,2013-12-20 23:15:00
5:35 PM,30.2,26.6,86,29.88,7.0,NNE,8.1,-,0.01,,Unknown,20,2013-12-20 23:35:00
5:55 PM,30.2,28.4,93,29.87,5.0,NNE,8.1,-,0.01,,Unknown,20,2013-12-20 23:55:00
6:15 PM,30.2,28.4,93,29.87,4.0,NNE,10.4,-,0.02,,Unknown,20,2013-12-21 00:15:00
6:35 PM,30.2,28.4,93,29.89,5.0,North,6.9,-,0.03,,Unknown,10,2013-12-21 00:35:00
6:55 PM,30.2,28.4,93,29.88,4.0,North,4.6,-,0.05,,Unknown,10,2013-12-21 00:55:00
7:15 PM,30.2,28.4,93,29.86,5.0,NNE,8.1,-,0.01,,Unknown,20,2013-12-21 01:15:00
7:35 PM,30.2,28.4,93,29.85,5.0,NNE,5.8,-,0.02,,Unknown,20,2013-12-21 01:35:00
7:55 PM,30.2,28.4,93,29.85,7.0,North,8.1,-,0.02,,Unknown,360,2013-12-21 01:55:00
8:15 PM,30.2,28.4,93,29.82,5.0,North,9.2,-,N/A,,Unknown,10,2013-12-21 02:15:00
8:35 PM,30.2,28.4,93,29.86,7.0,North,6.9,-,N/A,,Unknown,350,2013-12-21 02:35:00
8:55 PM,30.2,28.4,93,29.85,7.0,North,5.8,-,N/A,,Unknown,360,2013-12-21 02:55:00
9:15 PM,30.2,28.4,93,29.84,7.0,North,6.9,-,N/A,,Unknown,10,2013-12-21 03:15:00
9:35 PM,30.2,28.4,93,29.86,5.0,North,4.6,-,N/A,,Unknown,350,2013-12-21 03:35:00
9:55 PM,30.2,30.2,100,29.86,3.0,NNW,9.2,-,N/A,,Unknown,340,2013-12-21 03:55:00
10:15 PM,30.2,28.4,93,29.89,3.0,NW,5.8,-,0.01,,Unknown,310,2013-12-21 04:15:00
10:35 PM,30.2,30.2,100,29.89,2.0,WNW,5.8,-,0.10,Snow-Thunderstorm,Snow,300,2013-12-21 04:35:00
10:55 PM,30.2,30.2,100,29.86,3.0,NNW,4.6,-,0.18,Rain,Freezing Rain,330,2013-12-21 04:55:00
11:15 PM,30.2,30.2,100,29.83,3.0,North,4.6,-,0.01,,Unknown,350,2013-12-21 05:15:00
11:35 PM,30.2,30.2,100,29.81,5.0,North,4.6,-,0.01,,Unknown,350,2013-12-21 05:35:00
11:55 PM,30.2,30.2,100,29.80,7.0,ESE,3.5,-,0.01,,Unknown,110,2013-12-21 05:55:00